SCP
-0 -0 -0 -0 -0 -0 -0 -0 0 0 0 0 0 0 0 0 0 0 0 0 0 0 0 0 0 0 0 0 0 0 0 0 0 0 0 -0 0 -0 -0 -0 -0 -0 -0 -0 -0
-0 -0 -0 -0 -0 -0 -0 -0 0 0 0 0 0 0 0 0 0 0 0 0 0 0 0 0 0 0 0 0 0 0 0 0 -0 -0 0 -0 0 0 -0 -0 -0 -0 -0 0 0
-0 -0 -0 -0 -0 -0 -0 -0 0 0 0 0 0 0 0 0 0 0 0 0 0 0 0 0 0 0 0 0 0 0 0 0 0 0 0 0 0 -0 0 -0 -0 -0 -0 0 0
-0 -0 -0 -0 -0 -0 -0 -0 -0 0 0 0 0 0 0 0 0 0 0 0 0 0 0 0 0 0 0 0 0 0 0 0 0 0 0 0 0 0 0 -0 0 0 0 0 0
-0 -0 -0 -0 -0 -0 -0 -0 -0 -0 0 0 0 0 0 0 0 0 0 0 0 0 0 0 0 0 0 0 0 0 0 0 0 0 0 0 0 0 0 0 0 0 -0 0 -0
-0 -0 -0 -0 -0 -0 -0 -0 -0 -0 0 0 0 0 0 0 0 0 0 0 0 0 0 0 0 0 0 0 0 0 0 0 0 0 0 0 0 0 0 0 0 -0 -0 -0 -0
-0 -0 -0 -0 -0 -0 -0 -0 -0 -0 0 0 0 0 0 0 0 0 0 0 0 0 0 0 0 0 0 0 0 0 0 0 0 0 0 0 0 0 0 0 -0 -0 -0 0 0
-0 -0 -0 -0 -0 -0 -0 -0 -0 -0 0 0 0 0 0 -0 -0 0 0 0 0 0 0 0 0 0 0 0 0 0 0 0 0 0 0 0 0 0 0 0 0 -0 0 0 0
-0 -0 -0 -0 -0 -0 -0 -0 0 0 0 0 0 0 0 0 0 -0 0 0 0 0 0 0 0 0 0 0 0 0 0 0 0 0 0 0 0 0 0 0 0 0 0 0 0
-0 -0 -0 -0 -0 -0 -0 0 0 0 0 0 0 0 0 0 0 0 0 0 0 0 0 0 0 0 0 0 0 0 0 0 0 0 0 0 0 0 0 0 0 0 0 0 0
-0 -0 -0 -0 -0 -0 0 0 0 0 0 0 0 0 0 0 0 0 0 0 0 0 0 0 0 0 -0 0 0 0 0 0 0 0 0 0 0 0 0 0 0 0 0 0 0
-0 -0 -0 -0 -0 -0 0 0 0 0 0 0 0 0 0 0 0 0 0 0 0 0 0 0 0 0 0 0 0 0 0 0 0 0 0 0 0 0 0 0 0 0 0 0 0
-0 -0 -0 -0 -0 0 0 0 0 0 0 0 0 0 0 0 0 0 0 0 0 0 0 0 0 0 0 0 0 0 0 0 0 0 0 0 0 0 0 0 0 0 0 0 0
0 0 -0 -0 0 0 0 0 0 0 0 0 0 0 0 0 0 -0 0 0 0 0 0 0 0 0 0 0 0 0 0 0 0 0 0 0 0 0 0 0 0 0 0 0 0
0 0 0 0 0 0 0 0 0 0 0 0 0 0 0 0 0 0 0 0 0 0 0 0 0 0 0 0 0 0 0 0 0 0 0 0 0 0 0 0 0 0 0 0 0
0 0 0 0 0 0 0 0 0 0 0 0 0 0 0 0 0 0 0 0 0 0 0 0 0 0 0 0 0 0 0 0 0 0 0 0 0 0 0 0 0 0 0 0 0
0 0 0 0 0 0 0 0 0 0 0 0 0 0 0 0 0 0 0 0 0 0 0 0 0 0 0 0 0 0 0 0 0 0 0 0 0 0 0 0 0 0 0 0 0
0 0 0 0 0 0 0 0 0 0 0 0 0 0 0 0 0 0 0 0 0 0 0 0 0 0 0 0 0 0 0 0 0 0 0 0 0 0 0 -0 0 0 0 0 0
0 0 0 0 0 0 0 0 0 0 0 0 0 0 0 0 0 0 0 0 0 0 0 0 0 0 0 0 0 0 0 0 0 0 0 0 0 0 0 0 0 0 0 0 0
0 0 0 0 0 0 0 0 0 0 0 0 0 0 0 0 0 0 0 -0 -0 0 0 0 0 0 0 0 0 0 0 0 0 0 0 0 0 0 0 0 0 0 0 0 0
0 0 0 0 0 0 0 0 0 0 0 0 0 0 -0 0 0 0 0 0 -0 0 0 0 0 0 0 0 0 0 0 0 0 0 0 0 0 0 0 0 0 0 0 0 0
0 0 0 0 0 0 0 0 0 -0 -0 -0 0 0 0 0 0 0 -0 0 0 0 0 0 0 0 0 0 0 0 0 0 0 0 0 0 0 0 0 0 0 0 0 0 0
0 0 0 0 0 0 0 0 0 -0 -0 0 0 0 0 0 0 0 0 0 0 0 0 0 0 0 0 0 0 0 0 0 0 0 0 0 0 0 0 0 0 0 0 0 0
0 0 0 0 0 0 0 0 0 0 0 0 0 0 0 0 0 0 0 0 0 0 0 0 0 0 0 0 0 0 0 0 0 0 0 0 0 0 0 0 0 0 0 0 0
0 0 0 0 0 0 0 0 0 0 0 0 0 0 0 0 0 0 0 0 0 0 0 0 0 0 0 0 0 0 0 0 0 0 0 0 0 0 0 0 0 0 0 0 0
0 0 0 0 0 0 0 0 0 0 0 0 0 0 0 0 0 0 0 0 0 0 0 0 0 0 0 0 0 0 0 0 0 0 0 0 0 0 0 0 0 0 0 0 0
0 0 0 0 0 0 0 0 0 0 0 0 0 0 0 0 0 0 0 0 0 0 0 0 0 0 0 0 0 0 0 0 0 0 0 0 0 0 0 0 0 0 0 0 0
Wind_Speed_500mb
35 34 32 30 27 26 25 26 26 24 21 17 16 15 17 21 25 29 30 13 8 13 12 10 4 4 7 12 12 12 9 6 10 13 8 7 10 9 10 14 2 2 17 23 31
35 34 34 33 31 28 25 25 26 25 21 17 14 15 19 24 26 22 8 10 14 10 6 5 7 11 9 9 11 10 9 20 12 15 7 3 8 22 10 9 9 29 37 37 34
37 35 34 34 33 32 26 24 25 24 19 15 15 18 22 25 14 6 8 8 17 13 4 4 10 9 7 8 10 11 11 11 10 20 13 8 15 11 30 5 3 32 41 35 38
37 36 36 34 33 33 31 23 23 22 16 13 16 20 23 18 4 2 5 4 15 11 6 7 10 7 6 4 7 2 16 17 7 17 20 26 31 18 14 13 35 33 31 38 33
40 38 37 35 34 32 31 27 22 18 12 14 17 21 23 10 6 5 10 3 16 14 9 14 9 5 4 5 5 8 9 3 15 14 20 40 26 23 37 36 34 28 30 26 24
42 41 39 37 35 33 30 28 22 16 11 13 18 21 20 9 3 6 8 3 9 12 16 14 5 3 3 4 8 8 12 9 25 33 25 41 21 15 12 30 31 26 25 23 20
45 44 42 39 36 33 30 28 21 15 14 14 19 21 29 20 5 5 3 7 10 10 6 2 6 4 2 3 3 3 10 15 10 10 16 34 16 15 22 33 32 29 23 22 29
49 46 44 42 39 34 30 28 20 15 16 18 20 22 17 9 11 12 7 8 4 3 4 10 8 9 5 4 9 8 11 10 9 6 9 7 7 20 24 34 29 24 22 20 20
52 50 46 42 41 36 31 27 20 16 18 19 19 14 17 9 19 13 14 10 2 10 10 11 13 2 1 8 9 11 5 5 3 7 5 7 12 24 30 38 32 25 24 23 25
53 52 49 44 41 37 31 24 19 16 19 19 22 12 15 3 7 12 16 16 12 11 5 3 3 7 8 8 7 4 1 7 5 5 13 11 18 25 30 39 34 29 28 28 30
54 52 51 46 41 35 28 16 11 8 14 18 7 26 40 24 15 8 16 18 12 3 5 6 8 10 18 13 6 4 6 13 4 5 13 13 29 23 31 36 32 28 26 27 31
55 54 50 46 40 33 15 2 4 8 18 30 38 43 42 35 13 8 6 13 10 8 6 10 9 14 10 7 5 6 15 10 11 11 15 25 19 15 15 15 20 24 23 25 29
55 54 51 43 39 14 11 7 1 16 8 20 30 35 32 22 15 21 17 16 7 9 9 11 10 10 6 4 11 4 11 13 12 16 21 25 9 6 1 9 14 13 14 16 17
53 53 51 44 21 14 4 7 15 4 7 13 9 14 22 17 8 16 23 17 3 16 10 10 8 7 6 6 11 6 10 19 28 8 10 4 7 8 8 8 13 17 20 22 22
52 50 48 42 38 22 10 13 6 7 5 6 7 7 28 23 6 14 27 25 14 9 8 10 7 8 9 5 9 8 14 13 8 8 11 2 7 7 11 13 15 30 34 29 28
52 49 50 41 35 15 14 5 19 11 12 7 11 11 10 10 4 7 10 19 4 5 2 10 6 1 8 6 1 15 12 13 10 6 3 3 10 7 13 18 13 35 44 36 33
54 46 47 41 26 9 5 15 9 7 9 5 6 8 6 8 4 6 10 10 10 7 4 10 7 6 7 13 11 13 13 6 7 8 10 3 9 12 11 8 23 42 53 44 43
55 48 39 32 25 24 14 7 8 7 11 10 6 4 15 10 9 4 8 7 3 10 6 7 8 3 3 5 13 7 11 10 7 5 7 4 7 9 5 14 24 53 57 49 48
55 44 22 12 22 29 16 7 15 12 6 11 13 7 6 7 8 7 13 14 16 15 12 8 3 6 11 5 6 5 7 7 13 6 5 6 8 5 6 1 35 49 53 55 52
58 39 4 6 14 36 7 13 10 8 7 6 4 5 15 10 11 11 13 8 11 19 6 14 8 3 4 3 21 7 10 8 7 3 5 8 8 9 10 13 12 30 54 56 54
41 16 17 14 30 12 7 12 9 13 8 5 3 9 11 12 16 11 14 6 10 9 9 10 9 7 2 6 10 5 5 13 10 8 10 4 10 11 16 24 31 41 58 65 56
24 5 6 19 3 3 5 9 4 6 4 10 6 16 11 10 7 12 20 11 6 19 17 4 11 7 3 9 5 4 9 10 10 8 2 6 12 3 11 31 44 46 64 60 54
38 13 6 12 3 3 8 7 7 5 8 9 10 12 6 10 9 6 5 3 7 10 19 15 4 7 13 12 7 6 6 10 10 6 10 10 11 4 3 24 41 49 57 54 52
17 8 9 10 11 4 7 8 9 9 11 9 12 6 3 4 9 10 6 7 3 7 21 16 8 13 14 11 8 6 7 9 10 7 7 11 11 10 9 15 34 50 56 54 56
18 5 8 8 8 10 5 6 8 10 8 7 5 10 12 7 5 6 5 3 8 3 9 9 9 6 2 7 6 6 8 11 13 11 12 12 14 15 17 20 38 55 52 56 58
16 15 19 10 20 9 8 5 4 12 6 8 5 4 8 12 14 17 12 7 11 8 7 7 4 5 4 1 4 4 12 13 12 7 10 6 12 3 13 33 40 53 58 59 56
23 13 9 13 12 5 5 8 7 11 13 27 16 7 5 7 10 8 15 17 11 16 7 8 12 7 5 5 8 9 12 8 7 7 10 11 15 16 9 27 49 58 61 59 54
Wind_Direction_500mb
17 15 9 359 351 344 342 343 343 339 333 328 322 319 314 305 297 290 281 273 243 207 215 213 228 159 148 157 138 126 70 180 216 152 199 219 119 107 125 144 197 180 169 140 143
10 8 7 2 356 346 336 334 336 337 336 335 336 335 326 321 310 293 291 228 202 186 192 205 158 141 130 137 147 108 128 214 202 169 172 304 112 129 121 110 72 123 137 132 135
3 2 0 357 355 351 340 330 331 333 335 341 342 337 333 330 329 76 44 159 174 178 210 163 148 136 125 142 166 163 190 209 228 192 236 135 110 118 119 46 232 146 136 135 148
355 355 354 352 351 349 345 334 328 328 330 335 335 331 332 326 167 62 32 156 196 203 201 155 147 121 101 142 183 135 238 219 327 187 162 156 127 93 57 105 140 134 138 150 152
348 348 346 346 345 345 343 336 328 324 320 325 328 327 335 310 275 322 319 286 201 205 177 141 140 119 129 186 169 188 261 172 276 145 122 133 95 103 94 126 140 135 140 122 105
343 342 341 340 338 338 337 333 325 318 309 319 323 320 321 300 285 313 3 102 162 166 161 167 136 317 241 211 167 217 341 114 100 101 111 109 103 79 92 138 123 133 102 97 103
343 338 336 335 333 331 331 327 317 305 299 308 315 312 301 255 244 219 179 116 119 105 117 230 293 268 188 243 258 285 78 47 16 71 115 94 32 90 124 151 112 110 95 86 75
340 339 335 331 329 326 327 319 310 287 287 298 308 308 272 228 217 208 221 213 204 235 263 310 332 276 215 331 1 54 72 106 262 204 152 74 162 142 142 143 106 101 98 86 77
336 337 336 331 326 323 324 315 304 271 273 284 295 296 272 244 245 225 208 213 149 325 287 292 290 296 23 88 15 10 169 118 166 213 90 78 132 153 147 141 113 109 102 92 80
333 333 334 332 325 322 322 314 302 264 259 271 268 289 249 77 325 234 218 233 255 315 152 215 149 60 29 79 204 214 8 83 99 66 39 66 115 122 127 130 121 116 106 98 90
331 330 331 331 326 323 320 312 295 282 246 224 255 264 284 294 334 194 240 237 233 231 111 30 72 220 218 203 154 141 101 94 42 331 70 97 133 119 121 122 125 125 121 110 101
329 327 328 329 326 323 327 5 69 348 298 268 261 262 260 275 294 229 225 184 164 186 102 19 235 227 204 197 169 173 120 117 49 92 87 127 106 95 113 135 144 147 141 127 111
327 326 325 327 327 322 336 160 244 302 257 282 243 236 243 236 222 239 202 188 143 147 185 172 226 108 167 171 134 94 157 166 138 100 67 123 102 149 129 132 152 159 131 115 128
326 325 323 326 326 328 316 176 330 178 43 275 233 227 192 181 255 242 212 179 161 202 186 225 268 164 168 122 122 119 122 132 145 122 167 204 205 229 182 174 191 185 184 175 172
325 324 319 318 305 307 255 293 293 139 339 244 205 188 170 169 160 190 191 190 163 186 111 261 333 150 110 193 136 161 131 139 132 103 108 159 96 267 141 222 205 201 202 192 187
322 322 311 309 299 289 231 260 147 46 252 319 160 158 133 185 181 117 154 200 185 128 309 246 306 136 141 73 111 137 87 57 58 88 52 138 138 253 194 216 185 199 199 193 190
320 317 305 293 283 239 219 165 52 157 320 330 218 153 151 164 232 156 148 157 149 105 322 11 346 329 107 76 28 74 59 355 349 11 216 75 105 245 228 223 191 189 197 196 201
321 317 304 284 258 224 208 68 173 231 257 296 1 90 172 159 235 161 105 147 133 101 100 132 352 20 359 142 157 57 134 148 222 214 269 304 225 259 271 256 217 200 194 196 199
325 325 308 265 220 194 180 130 202 205 272 341 330 134 213 207 181 138 187 190 199 168 144 134 52 338 39 101 100 181 67 152 105 23 52 279 274 279 12 12 177 179 189 195 195
333 330 27 212 198 179 104 216 211 224 353 9 281 177 185 197 155 156 179 202 199 186 163 196 105 53 194 89 41 123 148 70 19 161 272 296 282 252 217 205 177 176 183 190 192
337 340 352 143 143 187 176 222 239 253 354 345 294 304 212 172 175 181 201 253 181 132 96 129 105 249 63 32 172 54 65 52 110 123 175 240 261 217 211 191 191 190 189 193 192
353 351 21 171 76 43 169 203 223 247 334 261 240 213 232 165 142 194 203 203 137 150 143 117 124 121 175 301 241 124 147 132 120 227 125 148 273 189 244 203 188 183 193 196 196
337 300 17 194 156 278 297 277 244 247 215 233 250 200 209 169 116 147 156 353 186 133 157 179 48 71 358 354 354 117 123 102 103 84 194 139 262 11 85 171 184 176 190 190 191
350 347 348 63 48 80 19 318 297 300 249 255 255 242 255 149 34 156 135 359 83 100 115 111 112 151 180 194 160 160 154 130 119 110 194 221 265 263 186 169 171 180 186 187 191
4 22 0 326 355 350 325 350 331 322 328 285 234 208 186 139 86 125 126 125 46 120 66 98 115 104 101 143 144 188 212 170 185 199 169 251 207 251 207 188 177 183 179 184 189
17 5 344 292 316 331 345 26 356 321 281 291 317 281 191 153 180 192 149 184 175 34 69 17 127 116 110 87 81 280 265 236 217 190 246 206 259 215 135 162 167 180 184 188 188
11 347 335 309 337 6 354 323 301 355 267 257 315 277 176 245 217 260 159 151 172 139 119 90 127 97 198 17 45 334 250 246 245 194 160 172 231 156 162 165 176 184 192 191 192
Wind_Speed_850mb
35 34 32 30 27 26 25 26 26 24 21 17 16 15 17 21 25 29 30 13 8 13 12 10 4 4 7 12 12 12 9 6 10 13 8 7 10 9 10 14 2 2 17 23 31
35 34 34 33 31 28 25 25 26 25 21 17 14 15 19 24 26 22 8 10 14 10 6 5 7 11 9 9 11 10 9 20 12 15 7 3 8 22 10 9 9 29 37 37 34
37 35 34 34 33 32 26 24 25 24 19 15 15 18 22 25 14 6 8 8 17 13 4 4 10 9 7 8 10 11 11 11 10 20 13 8 15 11 30 5 3 32 41 35 38
37 36 36 34 33 33 31 23 23 22 16 13 16 20 23 18 4 2 5 4 15 11 6 7 10 7 6 4 7 2 16 17 7 17 20 26 31 18 14 13 35 33 31 38 33
40 38 37 35 34 32 31 27 22 18 12 14 17 21 23 10 6 5 10 3 16 14 9 14 9 5 4 5 5 8 9 3 15 14 20 40 26 23 37 36 34 28 30 26 24
42 41 39 37 35 33 30 28 22 16 11 13 18 21 20 9 3 6 8 3 9 12 16 14 5 3 3 4 8 8 12 9 25 33 25 41 21 15 12 30 31 26 25 23 20
45 44 42 39 36 33 30 28 21 15 14 14 19 21 29 20 5 5 3 7 10 10 6 2 6 4 2 3 3 3 10 15 10 10 16 34 16 15 22 33 32 29 23 22 29
49 46 44 42 39 34 30 28 20 15 16 18 20 22 17 9 11 12 7 8 4 3 4 10 8 9 5 4 9 8 11 10 9 6 9 7 7 20 24 34 29 24 22 20 20
52 50 46 42 41 36 31 27 20 16 18 19 19 14 17 9 19 13 14 10 2 10 10 11 13 2 1 8 9 11 5 5 3 7 5 7 12 24 30 38 32 25 24 23 25
53 52 49 44 41 37 31 24 19 16 19 19 22 12 15 3 7 12 16 16 12 11 5 3 3 7 8 8 7 4 1 7 5 5 13 11 18 25 30 39 34 29 28 28 30
54 52 51 46 41 35 28 16 11 8 14 18 7 26 40 24 15 8 16 18 12 3 5 6 8 10 18 13 6 4 6 13 4 5 13 13 29 23 31 36 32 28 26 27 31
55 54 50 46 40 33 15 2 4 8 18 30 38 43 42 35 13 8 6 13 10 8 6 10 9 14 10 7 5 6 15 10 11 11 15 25 19 15 15 15 20 24 23 25 29
55 54 51 43 39 14 11 7 1 16 8 20 30 35 32 22 15 21 17 16 7 9 9 11 10 10 6 4 11 4 11 13 12 16 21 25 9 6 1 9 14 13 14 16 17
53 53 51 44 21 14 4 7 15 4 7 13 9 14 22 17 8 16 23 17 3 16 10 10 8 7 6 6 11 6 10 19 28 8 10 4 7 8 8 8 13 17 20 22 22
52 50 48 42 38 22 10 13 6 7 5 6 7 7 28 23 6 14 27 25 14 9 8 10 7 8 9 5 9 8 14 13 8 8 11 2 7 7 11 13 15 30 34 29 28
52 49 50 41 35 15 14 5 19 11 12 7 11 11 10 10 4 7 10 19 4 5 2 10 6 1 8 6 1 15 12 13 10 6 3 3 10 7 13 18 13 35 44 36 33
54 46 47 41 26 9 5 15 9 7 9 5 6 8 6 8 4 6 10 10 10 7 4 10 7 6 7 13 11 13 13 6 7 8 10 3 9 12 11 8 23 42 53 44 43
55 48 39 32 25 24 14 7 8 7 11 10 6 4 15 10 9 4 8 7 3 10 6 7 8 3 3 5 13 7 11 10 7 5 7 4 7 9 5 14 24 53 57 49 48
55 44 22 12 22 29 16 7 15 12 6 11 13 7 6 7 8 7 13 14 16 15 12 8 3 6 11 5 6 5 7 7 13 6 5 6 8 5 6 1 35 49 53 55 52
58 39 4 6 14 36 7 13 10 8 7 6 4 5 15 10 11 11 13 8 11 19 6 14 8 3 4 3 21 7 10 8 7 3 5 8 8 9 10 13 12 30 54 56 54
41 16 17 14 30 12 7 12 9 13 8 5 3 9 11 12 16 11 14 6 10 9 9 10 9 7 2 6 10 5 5 13 10 8 10 4 10 11 16 24 31 41 58 65 56
24 5 6 19 3 3 5 9 4 6 4 10 6 16 11 10 7 12 20 11 6 19 17 4 11 7 3 9 5 4 9 10 10 8 2 6 12 3 11 31 44 46 64 60 54
38 13 6 12 3 3 8 7 7 5 8 9 10 12 6 10 9 6 5 3 7 10 19 15 4 7 13 12 7 6 6 10 10 6 10 10 11 4 3 24 41 49 57 54 52
17 8 9 10 11 4 7 8 9 9 11 9 12 6 3 4 9 10 6 7 3 7 21 16 8 13 14 11 8 6 7 9 10 7 7 11 11 10 9 15 34 50 56 54 56
18 5 8 8 8 10 5 6 8 10 8 7 5 10 12 7 5 6 5 3 8 3 9 9 9 6 2 7 6 6 8 11 13 11 12 12 14 15 17 20 38 55 52 56 58
16 15 19 10 20 9 8 5 4 12 6 8 5 4 8 12 14 17 12 7 11 8 7 7 4 5 4 1 4 4 12 13 12 7 10 6 12 3 13 33 40 53 58 59 56
23 13 9 13 12 5 5 8 7 11 13 27 16 7 5 7 10 8 15 17 11 16 7 8 12 7 5 5 8 9 12 8 7 7 10 11 15 16 9 27 49 58 61 59 54
Wind_Direction_850mb
17 15 9 359 351 344 342 343 343 339 333 328 322 319 314 305 297 290 281 273 243 207 215 213 228 159 148 157 138 126 70 180 216 152 199 219 119 107 125 144 197 180 169 140 143
10 8 7 2 356 346 336 334 336 337 336 335 336 335 326 321 310 293 291 228 202 186 192 205 158 141 130 137 147 108 128 214 202 169 172 304 112 129 121 110 72 123 137 132 135
3 2 0 357 355 351 340 330 331 333 335 341 342 337 333 330 329 76 44 159 174 178 210 163 148 136 125 142 166 163 190 209 228 192 236 135 110 118 119 46 232 146 136 135 148
355 355 354 352 351 349 345 334 328 328 330 335 335 331 332 326 167 62 32 156 196 203 201 155 147 121 101 142 183 135 238 219 327 187 162 156 127 93 57 105 140 134 138 150 152
348 348 346 346 345 345 343 336 328 324 320 325 328 327 335 310 275 322 319 286 201 205 177 141 140 119 129 186 169 188 261 172 276 145 122 133 95 103 94 126 140 135 140 122 105
343 342 341 340 338 338 337 333 325 318 309 319 323 320 321 300 285 313 3 102 162 166 161 167 136 317 241 211 167 217 341 114 100 101 111 109 103 79 92 138 123 133 102 97 103
343 338 336 335 333 331 331 327 317 305 299 308 315 312 301 255 244 219 179 116 119 105 117 230 293 268 188 243 258 285 78 47 16 71 115 94 32 90 124 151 112 110 95 86 75
340 339 335 331 329 326 327 319 310 287 287 298 308 308 272 228 217 208 221 213 204 235 263 310 332 276 215 331 1 54 72 106 262 204 152 74 162 142 142 143 106 101 98 86 77
336 337 336 331 326 323 324 315 304 271 273 284 295 296 272 244 245 225 208 213 149 325 287 292 290 296 23 88 15 10 169 118 166 213 90 78 132 153 147 141 113 109 102 92 80
333 333 334 332 325 322 322 314 302 264 259 271 268 289 249 77 325 234 218 233 255 315 152 215 149 60 29 79 204 214 8 83 99 66 39 66 115 122 127 130 121 116 106 98 90
331 330 331 331 326 323 320 312 295 282 246 224 255 264 284 294 334 194 240 237 233 231 111 30 72 220 218 203 154 141 101 94 42 331 70 97 133 119 121 122 125 125 121 110 101
329 327 328 329 326 323 327 5 69 348 298 268 261 262 260 275 294 229 225 184 164 186 102 19 235 227 204 197 169 173 120 117 49 92 87 127 106 95 113 135 144 147 141 127 111
327 326 325 327 327 322 336 160 244 302 257 282 243 236 243 236 222 239 202 188 143 147 185 172 226 108 167 171 134 94 157 166 138 100 67 123 102 149 129 132 152 159 131 115 128
326 325 323 326 326 328 316 176 330 178 43 275 233 227 192 181 255 242 212 179 161 202 186 225 268 164 168 122 122 119 122 132 145 122 167 204 205 229 182 174 191 185 184 175 172
325 324 319 318 305 307 255 293 293 139 339 244 205 188 170 169 160 190 191 190 163 186 111 261 333 150 110 193 136 161 131 139 132 103 108 159 96 267 141 222 205 201 202 192 187
322 322 311 309 299 289 231 260 147 46 252 319 160 158 133 185 181 117 154 200 185 128 309 246 306 136 141 73 111 137 87 57 58 88 52 138 138 253 194 216 185 199 199 193 190
320 317 305 293 283 239 219 165 52 157 320 330 218 153 151 164 232 156 148 157 149 105 322 11 346 329 107 76 28 74 59 355 349 11 216 75 105 245 228 223 191 189 197 196 201
321 317 304 284 258 224 208 68 173 231 257 296 1 90 172 159 235 161 105 147 133 101 100 132 352 20 359 142 157 57 134 148 222 214 269 304 225 259 271 256 217 200 194 196 199
325 325 308 265 220 194 180 130 202 205 272 341 330 134 213 207 181 138 187 190 199 168 144 134 52 338 39 101 100 181 67 152 105 23 52 279 274 279 12 12 177 179 189 195 195
333 330 27 212 198 179 104 216 211 224 353 9 281 177 185 197 155 156 179 202 199 186 163 196 105 53 194 89 41 123 148 70 19 161 272 296 282 252 217 205 177 176 183 190 192
337 340 352 143 143 187 176 222 239 253 354 345 294 304 212 172 175 181 201 253 181 132 96 129 105 249 63 32 172 54 65 52 110 123 175 240 261 217 211 191 191 190 189 193 192
353 351 21 171 76 43 169 203 223 247 334 261 240 213 232 165 142 194 203 203 137 150 143 117 124 121 175 301 241 124 147 132 120 227 125 148 273 189 244 203 188 183 193 196 196
337 300 17 194 156 278 297 277 244 247 215 233 250 200 209 169 116 147 156 353 186 133 157 179 48 71 358 354 354 117 123 102 103 84 194 139 262 11 85 171 184 176 190 190 191
350 347 348 63 48 80 19 318 297 300 249 255 255 242 255 149 34 156 135 359 83 100 115 111 112 151 180 194 160 160 154 130 119 110 194 221 265 263 186 169 171 180 186 187 191
4 22 0 326 355 350 325 350 331 322 328 285 234 208 186 139 86 125 126 125 46 120 66 98 115 104 101 143 144 188 212 170 185 199 169 251 207 251 207 188 177 183 179 184 189
17 5 344 292 316 331 345 26 356 321 281 291 317 281 191 153 180 192 149 184 175 34 69 17 127 116 110 87 81 280 265 236 217 190 246 206 259 215 135 162 167 180 184 188 188
11 347 335 309 337 6 354 323 301 355 267 257 315 277 176 245 217 260 159 151 172 139 119 90 127 97 198 17 45 334 250 246 245 194 160 172 231 156 162 165 176 184 192 191 192